User: anonymous   Login
Location: Middle Street
(51.7167°N, 0.0333°E)
Time: 20:50:45
(UTC+00:00)
Language:

Cosmos 1680 Rocket - Orbit

View from above orbital plane
View from above orbital plane
View from above satellite
View from above satellite

Ground track
Ground track

The orbit data is extracted from the following two-line orbital elements,

1 16012U 85079B   21110.37933429 -.00000006  00000-0  67271-5 0  9999
2 16012  74.0588  81.3590 0015006 349.7756  10.3089 14.36364710865053
Epoch (UTC): 20 April 2021 09:06:14
Eccentricity: 0.0015006
inclination: 74.0588°
perigee height: 760 km
apogee height: 781 km
right ascension of ascending node: 81.3590°
argument of perigee: 349.7756°
revolutions per day: 14.36364710
mean anomaly at epoch: 10.3089°
orbit number at epoch: 86505

The dashed part of the orbit path shows where the satellite is in the earth's shadow,  

DLR